Simultaneous Nadir Overpasses (SNOs) Predictions

Prediction of SNOs between LANDSAT-8 and METOP-B Satellite Orbit:

Table of predicted SNOs for the next 14.0 days since TLE Epoch: 4/27/2019
Index Date (LANDSAT-8) Time (LANDSAT-8) Lat,Lon (LANDSAT-8) SZA (LANDSAT-8 ) Date (METOP-B) Time (METOP-B) Lat,Lon (METOP-B) SZA (METOP-B ) Distance(km) Time Diff (sec)
1 04/27/2019 21:37:32 -81.07, 74.27 110.83 04/27/2019 21:36:36 -81.08, 74.43 110.83 2.91 56
2 04/27/2019 22:26:57 81.10,-117.69 69.22 04/27/2019 22:27:15 81.11,-117.56 69.25 2.32 18
3 04/30/2019 17:11:45 -81.08, 140.72 111.69 04/30/2019 17:10:59 -81.08, 140.64 111.72 1.50 46
4 04/30/2019 18:01:10 81.10, -51.27 68.36 04/30/2019 18:01:38 81.10, -51.40 68.36 2.30 28
5 05/03/2019 12:45:58 -81.10,-152.47 112.47 05/03/2019 12:45:21 -81.10,-152.42 112.48 0.93 37
6 05/03/2019 13:35:23 81.12, 15.51 67.58 05/03/2019 13:36:00 81.12, 15.50 67.59 0.63 37
7 05/06/2019 08:20:12 -81.10, -86.03 113.27 05/06/2019 08:19:44 -81.10, -85.86 113.26 2.85 28
8 05/06/2019 09:09:37 81.12, 81.93 66.78 05/06/2019 09:10:23 81.12, 82.01 66.81 1.47 46
9 05/09/2019 03:54:25 -81.10, -19.59 114.03 05/09/2019 03:54:07 -81.09, -19.69 114.05 1.87 18




NCC Satellite Simultaneous Nadir Overpasses (SNOs) Prediction Service
